Weather in Auki

Solomon Islands     8°46′18″S   160°41′54″E
temp.,
°C
wind,
m/s
gust,
m/s
humid.,
%
clouds,
%
prec.,
mm/h
press.,
hPa
HPBL,
m
19 january, tue
tue1923:00+25e229255 1.0 100994
02:00+25ene129367 0.4 100774
05:00+24ene229271 1.7 1008108
08:00+26ene2386100 0.2 1009323
11:00+30ne146686 0.7 10101023
14:00+31ne255929 1.4 10081311
17:00+29ene246861 1.4 1007982
20:00+25ene2285100 0.0 1009132
20 january, wed
wed2023:00+25ne128684 0.0 101163
02:00+24ene128922 0.1 100961
05:00+24ene119058 0.3 100960
08:00+27e017975 0.0 1010263
11:00+31w126277 0.0 10111083
14:00+29nnw127796 2.4 1008740
17:00+27nne128297 6.9 1007560
20:00+25ne228953 1.9 1009174
21 january, thu
thu2123:00+24ene229131 2.4 101089
02:00+24ene1291100 0.8 100859
05:00+24ne1292100 0.9 100879
08:00+26ne1285100 0.0 1010190
11:00+31nnw126497 0.2 1010897
14:00+28nw337682 1.2 1007854
17:00+28nnw238084 2.3 1006836
20:00+25nne228698 0.1 1008259
22 january, fri
fri2223:00+24ne228795 0.1 1010228
02:00+23nne228630 0.0 1008219
05:00+23nne228663 0.0 1007250
08:00+26nne127721 0.0 1009280
11:00+30nw225815 0.0 10091157
14:00+29wnw2367100 0.0 1007737
17:00+28nnw1270100 0.1 1007858
20:00+25ne228274 0.0 1008196
23 january, sat
sat2323:00+24ne128438 0.0 1009131
02:00+24ne128361 0.0 100781
05:00+23ne128274 0.0 100784
08:00+26ne127381 0.0 1009193
11:00+31nw125182 0.0 10091102
14:00+30w335897 0.0 1006984
17:00+29nw236699 0.0 1006927
20:00+25nne128097 0.0 1008271